When you browse on this site, cookies collect data to enhance your experience and personalize the content and advertising you see.
Visit our Privacy Policy to learn more. By continuing to use the site, you agree to this use of cookies and data.
  • Em Portugal
  • Lista de países
  • Para 7 dias
  • Temperatura da água
  • Mapas de satélite
  • Mapa do tempo
  • Widgets de tempo
  • user-avatar
    Iniciar Sessão

    Previsão horária em Uznozh

    Hoje, 20 Abril, Sábado

    Tempo Temperatura Precipitação Vento Pressão Humidade
    00:00 +7°C° 0 mm 1 m/s 759 mmHg 54%
    01:00 +7°C° 0 mm 1 m/s 759 mmHg 55%
    02:00 +5°C° 0 mm 2 m/s 758 mmHg 58%
    03:00 +5°C° 0 mm 2 m/s 758 mmHg 60%
    04:00 +5°C° 0 mm 2 m/s 758 mmHg 62%
    05:00 +5°C° 0 mm 2 m/s 758 mmHg 65%
    06:00 +6°C° 0 mm 2 m/s 757 mmHg 61%
    07:00 +8°C° 0 mm 2 m/s 757 mmHg 57%
    08:00 +10°C° 0 mm 2 m/s 757 mmHg 53%
    09:00 +13°C° 0 mm 2 m/s 757 mmHg 47%
    10:00 +13°C° 0 mm 3 m/s 757 mmHg 41%
    11:00 +16°C° 0 mm 3 m/s 756 mmHg 36%
    12:00 +16°C° 0 mm 3 m/s 756 mmHg 34%
    13:00 +16°C° 0 mm 2 m/s 756 mmHg 33%
    14:00 +17°C° 0 mm 2 m/s 755 mmHg 32%
    15:00 +16°C° 0 mm 2 m/s 755 mmHg 34%
    16:00 +16°C° 0 mm 1 m/s 755 mmHg 36%
    17:00 +16°C° 0 mm 1 m/s 755 mmHg 38%
    18:00 +14°C° 0 mm 1 m/s 754 mmHg 42%
    19:00 +13°C° 0 mm 2 m/s 754 mmHg 46%
    20:00 +12°C° 0 mm 2 m/s 754 mmHg 50%
    21:00 +10°C° 0 mm 2 m/s 754 mmHg 53%
    22:00 +11°C° 0 mm 1 m/s 754 mmHg 56%
    23:00 +10°C° 0 mm 1 m/s 754 mmHg 59%

    Amanhã, 21 Abril, Domingo

    Tempo Temperatura Precipitação Vento Pressão Humidade
    00:00 +10°C° 0 mm 1 m/s 754 mmHg 62%
    01:00 +9°C° 0 mm 2 m/s 754 mmHg 65%
    02:00 +8°C° 0 mm 2 m/s 754 mmHg 68%
    03:00 +8°C° 0.3 mm 2 m/s 754 mmHg 74%
    04:00 +7°C° 0.3 mm 2 m/s 754 mmHg 80%
    05:00 +7°C° 0.3 mm 2 m/s 753 mmHg 86%
    06:00 +8°C° 0.2 mm 2 m/s 754 mmHg 82%
    07:00 +9°C° 0.2 mm 3 m/s 754 mmHg 77%
    08:00 +10°C° 0.2 mm 3 m/s 754 mmHg 73%
    09:00 +12°C° 0.1 mm 4 m/s 754 mmHg 63%
    10:00 +13°C° 0.1 mm 5 m/s 754 mmHg 54%
    11:00 +15°C° 0.1 mm 5 m/s 753 mmHg 44%
    12:00 +15°C° 0 mm 6 m/s 753 mmHg 43%
    13:00 +15°C° 0 mm 6 m/s 753 mmHg 41%
    14:00 +16°C° 0 mm 6 m/s 753 mmHg 40%
    15:00 +15°C° 0 mm 6 m/s 753 mmHg 42%
    16:00 +14°C° 0 mm 5 m/s 753 mmHg 44%
    17:00 +14°C° 0 mm 5 m/s 753 mmHg 47%
    18:00 +13°C° 0 mm 5 m/s 754 mmHg 48%
    19:00 +12°C° 0 mm 4 m/s 754 mmHg 49%
    20:00 +11°C° 0 mm 4 m/s 755 mmHg 50%
    21:00 +10°C° 0 mm 4 m/s 755 mmHg 52%
    22:00 +8°C° 0 mm 4 m/s 756 mmHg 55%
    23:00 +8°C° 0 mm 4 m/s 756 mmHg 57%

    Depois de amanhã, 22 Abril, Segunda-feira

    Tempo Temperatura Precipitação Vento Pressão Humidade
    00:00 +8°C° 0 mm 3 m/s 756 mmHg 58%
    01:00 +7°C° 0 mm 3 m/s 757 mmHg 59%
    02:00 +7°C° 0 mm 3 m/s 757 mmHg 61%
    03:00 +5°C° 0 mm 3 m/s 757 mmHg 63%
    04:00 +6°C° 0 mm 2 m/s 757 mmHg 65%
    05:00 +5°C° 0 mm 2 m/s 757 mmHg 68%
    06:00 +7°C° 0 mm 3 m/s 758 mmHg 61%
    07:00 +9°C° 0 mm 3 m/s 758 mmHg 55%
    08:00 +11°C° 0 mm 3 m/s 759 mmHg 48%
    09:00 +12°C° 0 mm 3 m/s 759 mmHg 44%
    10:00 +13°C° 0 mm 4 m/s 759 mmHg 39%
    11:00 +14°C° 0 mm 4 m/s 759 mmHg 35%
    12:00 +14°C° 0 mm 4 m/s 759 mmHg 35%
    13:00 +15°C° 0 mm 4 m/s 759 mmHg 35%
    14:00 +15°C° 0 mm 4 m/s 759 mmHg 34%
    15:00 +14°C° 0 mm 3 m/s 759 mmHg 36%
    16:00 +14°C° 0 mm 3 m/s 759 mmHg 37%
    17:00 +14°C° 0 mm 3 m/s 759 mmHg 39%
    18:00 +13°C° 0 mm 3 m/s 759 mmHg 41%
    19:00 +13°C° 0 mm 2 m/s 759 mmHg 43%
    20:00 +12°C° 0 mm 2 m/s 759 mmHg 45%
    21:00 +12°C° 0 mm 2 m/s 759 mmHg 46%
    22:00 +10°C° 0 mm 2 m/s 760 mmHg 46%
    23:00 +10°C° 0 mm 2 m/s 760 mmHg 47%

    23 Abril, Terça-feira

    Tempo Temperatura Precipitação Vento Pressão Humidade
    00:00 +10°C° 0 mm 2 m/s 760 mmHg 48%
    01:00 +10°C° 0 mm 2 m/s 760 mmHg 50%
    02:00 +9°C° 0 mm 2 m/s 760 mmHg 51%
    03:00 +9°C° 0 mm 2 m/s 760 mmHg 54%
    04:00 +8°C° 0 mm 2 m/s 761 mmHg 57%
    05:00 +7°C° 0 mm 2 m/s 761 mmHg 60%
    06:00 +9°C° 0 mm 2 m/s 761 mmHg 56%
    07:00 +10°C° 0 mm 2 m/s 761 mmHg 52%
    08:00 +13°C° 0 mm 2 m/s 761 mmHg 49%
    09:00 +13°C° 0 mm 3 m/s 761 mmHg 43%
    10:00 +14°C° 0 mm 3 m/s 761 mmHg 38%
    11:00 +17°C° 0 mm 3 m/s 761 mmHg 33%
    12:00 +17°C° 0 mm 4 m/s 761 mmHg 33%
    13:00 +17°C° 0 mm 4 m/s 760 mmHg 34%
    14:00 +17°C° 0 mm 4 m/s 760 mmHg 34%
    15:00 +17°C° 0 mm 4 m/s 760 mmHg 35%
    16:00 +17°C° 0 mm 4 m/s 760 mmHg 37%
    17:00 +15°C° 0 mm 4 m/s 759 mmHg 38%
    18:00 +14°C° 0 mm 3 m/s 759 mmHg 44%
    19:00 +12°C° 0 mm 3 m/s 760 mmHg 50%
    20:00 +10°C° 0 mm 2 m/s 760 mmHg 56%
    21:00 +10°C° 0 mm 2 m/s 760 mmHg 59%
    22:00 +9°C° 0 mm 2 m/s 760 mmHg 62%
    23:00 +8°C° 0 mm 2 m/s 760 mmHg 64%

    24 Abril, Quarta-feira

    Tempo Temperatura Precipitação Vento Pressão Humidade
    00:00 +8°C° 0 mm 2 m/s 760 mmHg 66%
    01:00 +8°C° 0 mm 2 m/s 760 mmHg 67%
    02:00 +7°C° 0 mm 2 m/s 760 mmHg 69%
    03:00 +7°C° 0 mm 2 m/s 760 mmHg 70%
    04:00 +7°C° 0 mm 2 m/s 760 mmHg 71%
    05:00 +6°C° 0 mm 2 m/s 760 mmHg 72%
    06:00 +8°C° 0 mm 3 m/s 761 mmHg 65%
    07:00 +10°C° 0 mm 3 m/s 761 mmHg 59%
    08:00 +12°C° 0 mm 3 m/s 761 mmHg 52%
    09:00 +14°C° 0 mm 4 m/s 761 mmHg 48%
    10:00 +15°C° 0 mm 5 m/s 760 mmHg 43%
    11:00 +16°C° 0 mm 5 m/s 760 mmHg 39%
    12:00 +17°C° 0 mm 5 m/s 760 mmHg 38%
    13:00 +17°C° 0 mm 5 m/s 759 mmHg 37%
    14:00 +19°C° 0 mm 5 m/s 759 mmHg 37%
    15:00 +17°C° 0 mm 5 m/s 759 mmHg 38%
    16:00 +17°C° 0 mm 5 m/s 759 mmHg 39%
    17:00 +17°C° 0 mm 5 m/s 758 mmHg 40%
    18:00 +15°C° 0 mm 4 m/s 758 mmHg 47%
    19:00 +13°C° 0 mm 4 m/s 758 mmHg 53%
    20:00 +11°C° 0 mm 3 m/s 758 mmHg 59%
    21:00 +11°C° 0 mm 3 m/s 759 mmHg 60%
    22:00 +11°C° 0 mm 3 m/s 759 mmHg 62%
    23:00 +10°C° 0 mm 3 m/s 759 mmHg 63%

    25 Abril, Quinta-feira

    Tempo Temperatura Precipitação Vento Pressão Humidade
    00:00 +10°C° 0 mm 3 m/s 759 mmHg 64%
    01:00 +9°C° 0 mm 3 m/s 759 mmHg 64%
    02:00 +9°C° 0 mm 3 m/s 759 mmHg 65%
    03:00 +8°C° 0 mm 3 m/s 759 mmHg 66%
    04:00 +8°C° 0 mm 3 m/s 759 mmHg 68%
    05:00 +8°C° 0 mm 3 m/s 759 mmHg 69%
    06:00 +10°C° 0 mm 4 m/s 759 mmHg 64%
    07:00 +12°C° 0 mm 4 m/s 759 mmHg 58%
    08:00 +13°C° 0 mm 5 m/s 759 mmHg 53%
    09:00 +15°C° 0 mm 5 m/s 758 mmHg 48%
    10:00 +16°C° 0 mm 5 m/s 758 mmHg 44%
    11:00 +19°C° 0 mm 6 m/s 758 mmHg 39%
    12:00 +20°C° 0 mm 6 m/s 757 mmHg 38%
    13:00 +20°C° 0 mm 6 m/s 757 mmHg 37%
    14:00 +21°C° 0 mm 5 m/s 757 mmHg 35%
    15:00 +21°C° 0 mm 5 m/s 756 mmHg 36%
    16:00 +20°C° 0 mm 5 m/s 756 mmHg 38%
    17:00 +20°C° 0 mm 4 m/s 756 mmHg 39%
    18:00 +18°C° 0 mm 4 m/s 756 mmHg 45%
    19:00 +16°C° 0 mm 3 m/s 756 mmHg 51%
    20:00 +13°C° 0 mm 3 m/s 756 mmHg 57%
    21:00 +13°C° 0 mm 3 m/s 755 mmHg 60%
    22:00 +12°C° 0 mm 3 m/s 755 mmHg 62%
    23:00 +12°C° 0 mm 3 m/s 755 mmHg 64%
    Mostrar mais